TimeEST,TemperatureF,Dew PointF,Humidity,Sea Level PressureIn,VisibilityMPH,Wind Direction,Wind SpeedMPH,Gust SpeedMPH,PrecipitationIn,Events,Conditions,WindDirDegrees,DateUTC
12:44 AM,32.0,30.2,93,29.58,2.5,North,26.5,39.1,0.00,Snow,Light Snow,360,2012-11-08 05:44:00
12:53 AM,32.0,30.0,92,29.59,2.5,North,21.9,38.0,0.00,Snow,Light Snow,360,2012-11-08 05:53:00
1:53 AM,32.0,30.0,92,29.56,3.0,North,29.9,39.1,0.00,Snow,Light Snow,360,2012-11-08 06:53:00
2:53 AM,33.1,30.9,92,29.53,5.0,North,25.3,42.6,0.00,,Overcast,360,2012-11-08 07:53:00
3:53 AM,33.1,32.0,96,29.52,6.0,North,25.3,40.3,0.00,,Overcast,360,2012-11-08 08:53:00
4:53 AM,34.0,32.0,92,29.50,6.0,North,28.8,41.4,0.00,,Overcast,360,2012-11-08 09:53:00
6:53 AM,35.1,33.1,92,29.50,8.0,North,31.1,43.7,0.00,,Overcast,360,2012-11-08 11:53:00
7:53 AM,36.0,33.1,89,29.51,10.0,North,24.2,41.4,0.00,,Overcast,350,2012-11-08 12:53:00
8:04 AM,35.6,33.8,93,29.50,5.0,North,27.6,43.7,0.00,Snow,Light Snow,360,2012-11-08 13:04:00
8:53 AM,36.0,34.0,93,29.51,3.0,North,26.5,43.7,0.03,Rain,Rain,350,2012-11-08 13:53:00
9:53 AM,37.0,34.0,89,29.51,10.0,NNW,26.5,47.2,0.01,,Overcast,340,2012-11-08 14:53:00
10:53 AM,37.9,35.1,89,29.51,10.0,North,25.3,42.6,N/A,,Overcast,350,2012-11-08 15:53:00
11:53 AM,39.0,35.1,86,29.50,10.0,North,20.7,42.6,N/A,,Overcast,350,2012-11-08 16:53:00
12:53 PM,39.0,35.1,86,29.52,10.0,North,27.6,43.7,N/A,,Overcast,350,2012-11-08 17:53:00
1:53 PM,39.9,35.1,83,29.54,10.0,NNW,26.5,40.3,N/A,,Overcast,340,2012-11-08 18:53:00
2:53 PM,39.9,35.1,83,29.57,10.0,NNW,24.2,38.0,N/A,,Overcast,340,2012-11-08 19:53:00
3:53 PM,39.9,36.0,86,29.59,10.0,NNW,19.6,34.5,N/A,,Overcast,340,2012-11-08 20:53:00
4:53 PM,39.0,36.0,89,29.63,10.0,NNW,18.4,32.2,N/A,,Overcast,340,2012-11-08 21:53:00
5:53 PM,39.0,35.1,86,29.65,10.0,North,21.9,34.5,N/A,,Overcast,350,2012-11-08 22:53:00
6:53 PM,39.0,35.1,86,29.68,10.0,NNW,23.0,38.0,N/A,,Overcast,340,2012-11-08 23:53:00
7:53 PM,39.9,35.1,83,29.69,10.0,NNW,19.6,34.5,N/A,,Overcast,340,2012-11-09 00:53:00
8:26 PM,39.2,33.8,81,29.69,10.0,NNW,24.2,34.5,N/A,,Overcast,340,2012-11-09 01:26:00
8:53 PM,39.9,34.0,79,29.71,10.0,NNW,20.7,28.8,N/A,,Overcast,330,2012-11-09 01:53:00
9:53 PM,39.0,33.1,79,29.72,10.0,NNW,18.4,25.3,N/A,,Overcast,330,2012-11-09 02:53:00
10:53 PM,39.9,33.1,77,29.72,10.0,NNW,18.4,25.3,N/A,,Overcast,330,2012-11-09 03:53:00
11:53 PM,39.9,32.0,73,29.73,10.0,NNW,16.1,26.5,N/A,,Overcast,330,2012-11-09 04:53:00